Regional Weather Roundup
Issued by NWS New Orleans/Baton Rouge, LA

Home | Current Version | Previous Version | Text Only | Print | Product List | Glossary On
Versions: 1 2 3 4 5 6 7 8 9 10 11 12 13 14 15 16 17 18 19 20 21 22 23 24 25 26 27 28
000
ASUS44 KLIX 292212
RWRLIX
NEW ORLEANS REGIONAL WEATHER ROUNDUP
NATIONAL WEATHER SERVICE NEW ORLEANS LA
500 PM CDT SUN MAY 29 2016

NOTE: "FAIR" INDICATES FEW OR NO CLOUDS BELOW 12,000 FEET WITH NO
      SIGNIFICANT WEATHER AND/OR OBSTRUCTIONS TO VISIBILITY.
      SKY/WX - SKY CONDITION AND SIGNIFICANT WEATHER.
      TMP - AIR TEMPERATURE.     DP    - DEWPOINT TEMPERATURE.
      RH  - RELATIVE HUMIDITY.   PRES  - PRESSURE.
      HI  - HEAT INDEX.          WCI   - WIND CHILL INDEX.

*  THESE STATIONS ARE NOT NWS OR FAA STATIONS AND ARE NOT UNDER
   NWS QUALITY CONTROL.

LAZ038-040-048-061>063-065>067-069-292300-
SOUTHEAST LOUISIANA

CITY           SKY/WX    TMP DP  RH WIND       PRES   REMARKS
N.O. AUDUBON     N/A     93  63  36 MISG        N/A
N.O. INTL ARPT PTSUNNY   89  65  44 NE7       30.04F
N.O. LAKEFRONT MOSUNNY   87  63  44 NW5       30.05F
N.O. DOWNTOWN*   N/A     89  64  43 VRB3      30.05F
RESERVE*         N/A     90  65  43 N5        30.05F
SLIDELL        MOSUNNY   86  70  58 S8        30.03F
BATON ROUGE    MOSUNNY   89  65  44 E6        30.05F
BOOTHVILLE     SUNNY     84  68  58 CALM      30.06F
BELLE CHASSE   PTSUNNY   87  66  49 SE7       30.04F
BOGALUSA*        N/A     91  62  37 CALM      30.05F
GALLIANO*      PTCLDY    85  70  61 E5        30.05F
NEW ROADS*       N/A     87  69  55 N6        30.05F
GONZALES*        N/A     88  66  48 NE5       30.04S
HAMMOND*       MOSUNNY   91  61  35 SE3       30.04F
HOUMA*         PTSUNNY   84  75  74 SE5       30.05F
PORT FOURCHON* CLEAR     82  70  65 S9        30.06F

$$

MSZ070-080>082-292300-
SOUTHERN MISSISSIPPI

CITY           SKY/WX    TMP DP  RH WIND       PRES   REMARKS
MCCOMB         SUNNY     89  61  38 N5        30.05F
GULFPORT       SUNNY     85  68  56 S7        30.03F
BILOXI         MOSUNNY   84  70  61 SW7       30.03F
PASCAGOULA     MOSUNNY   85  69  58 S7        30.03F
STENNIS ARPT*  MOSUNNY   86  64  48 S7        30.04F

$$

COASTAL OBSERVATIONS
LAKE AND NEARSHORE STATIONS

STATION/POSITION TIME  TEMP    WIND        PRES    WAVE
                       AIR SEA DIR/SP/G            HT/PER
                 (UTC) (F)     (DEG/KT/KT) (MB)    (FT/S)
PASCAGOULA       2100   84     220/  8/ 10 1017.3
WAVELAND YACHT   2100   82 80  170/  7/ 11 1017.7
GRAND ISLE       2100   83 82  130/  5/  6 1018.2
SOUTHWEST PASS   2100          100/  6/  7   N/A
NEW CANAL        2100   83 82   40/  2/  2 1017.4
SHELL BEACH      2100   83 84  330/  2/  3 1018.0

OFFSHORE STATIONS

STATION/POSITION TIME  TEMP    WIND        PRES    WAVE
                       AIR SEA DIR/SP/G            HT/PER
                 (UTC) (F)     (DEG/KT/KT) (MB)    (FT/S)
64 S DAUPHIN ISL 2100   80 80   20/  2/  4 1018.1

$$





USA.gov is the U.S. government's official web portal to all federal, state and local government web resources and services.